Location: Azul
(36.7830°S, 59.8500°W)
Time: 18:00:27
(UTC-03:00)

ZACube-1 - Pass Details

Date: 24 October 2021
Orbit: 584 x 664 km, 97.6° (Epoch: 07 December)

Event Time Altitude Azimuth Distance (km) Brightness Sun altitude
Rises 05:20:23 0° 349° (NNW) 2,902 ? -8.9°
Reaches altitude 10° 05:22:45 10° 337° (NNW) 2,018 ? -8.5°
Maximum altitude 05:26:38 30° 276° (W) 1,169 ? -7.8°
Drops below altitude 10° 05:30:38 10° 214° (SW) 2,085 ? -7.0°
Sets 05:33:08 0° 203° (SSW) 3,016 ? -6.5°
